User: anonymous   Login
Location: Lugrin
(46.4033°N, 6.6674°E)
Time: 22:56:37
(UTC+00:00)
Language:

Cosmos 2151 Rocket - Orbit

View from above orbital plane
View from above orbital plane
View from above satellite
View from above satellite

Ground track
Ground track

The orbit data is extracted from the following two-line orbital elements,

1 21423U 91042B   20328.43357738 +.00000090 +00000-0 +87593-5 0  9999
2 21423 082.4961 228.3099 0019123 097.7128 262.6257 14.79805436567170
Epoch (UTC): 23 November 2020 10:24:21
Eccentricity: 0.0019123
inclination: 82.4961°
perigee height: 616 km
apogee height: 643 km
right ascension of ascending node: 228.3099°
argument of perigee: 97.7128°
revolutions per day: 14.79805436
mean anomaly at epoch: 262.6257°
orbit number at epoch: 56717

The dashed part of the orbit path shows where the satellite is in the earth's shadow,  

DLR